Change the Weather History Date:

Wednesday, September 18, 2013

  Actual Average Record
Temperature  
Mean Temperature 95 °F -  
Max Temperature 111 °F - - ()
Min Temperature 79 °F - - ()
Cooling Degree Days 30    
Growing Degree Days 45 (Base 50)    
Moisture  
Dew Point 58 °F    
Average Humidity 41    
Maximum Humidity 76    
Minimum Humidity 6    
Precipitation  
Precipitation 0.00 in - - ()
Sea Level Pressure  
Sea Level Pressure 29.62 in    
Wind  
Wind Speed 8 mph ()    
Max Wind Speed 18 mph    
Max Gust Speed -    
Visibility 6.2 miles    
Events      
T = Trace of Precipitation, MM = Missing Value Source: Averaged Metar Reports

Daily Weather History Graph

Daily Weather History Graph

Search for Another Location

Airport or City:

Trip Planner

Search our weather history database for the weather conditions in past years. The results will help you decide how hot, cold, wet, or windy it might be!

Date:

Astronomy

Sep. 18, 2013 Rise Set
Actual Time 5:21 AM AST 5:35 PM AST
Civil Twilight 4:58 AM AST 5:58 PM AST
Nautical Twilight 4:32 AM AST 6:25 PM AST
Astronomical Twilight 4:05 AM AST 6:51 PM AST
Moon 4:43 PM AST (9/18) 4:02 AM AST (9/18)
Length of Visible Light 12h 59m
Length of Day
12h 13m
Waxing Gibbous, 98% of the Moon is Illuminated
Sep 18
Waxing Gibbous
Sep 19
Full
Sep 27
Last Quarter
Oct 5
New
Oct 12
First Quarter

Hourly Weather History & Observations

Time (AST) Temp. Heat Index Dew Point Humidity Pressure Visibility Wind Dir Wind Speed Gust Speed Precip Events Conditions
12:55 AM 82.4 °F 87.2 °F 71.8 °F 70% 29.59 in 6.2 mi SSW 8.1 mph - N/A   Clear
1:55 AM 81.3 °F 85.2 °F 70.5 °F 70% 29.58 in 6.2 mi SSW 4.6 mph - N/A   Clear
2:55 AM 80.4 °F 83.8 °F 70.2 °F 71% 29.59 in 6.2 mi West 3.5 mph - N/A   Clear
3:55 AM 79.2 °F - 68.2 °F 69% 29.60 in 6.2 mi West 8.1 mph - N/A   Clear
4:55 AM 80.2 °F 82.8 °F 68.0 °F 66% 29.62 in 6.2 mi West 10.4 mph - N/A   Clear
5:55 AM 81.1 °F 83.9 °F 67.8 °F 64% 29.63 in 6.2 mi WSW 12.7 mph - N/A   Clear
6:55 AM 84.6 °F 87.4 °F 67.3 °F 56% 29.65 in 6.2 mi West 8.1 mph - N/A   Clear
7:55 AM 92.5 °F 92.2 °F 60.1 °F 34% 29.67 in 6.2 mi West 11.5 mph - N/A   Clear
8:55 AM 98.1 °F 96.1 °F 54.7 °F 23% 29.67 in 6.2 mi West 13.8 mph - N/A   Clear
9:55 AM 104.0 °F - 40.5 °F 11% 29.66 in 6.2 mi West 15.0 mph - N/A   Clear
10:55 AM 108.0 °F - 34.9 °F 8% 29.65 in 6.2 mi NW 10.4 mph - N/A   Clear
11:55 AM 109.9 °F - 33.6 °F 7% 29.63 in 6.2 mi NW 6.9 mph - N/A   Clear
12:55 PM 110.7 °F - 32.7 °F 7% 29.60 in 6.2 mi ENE 12.7 mph - N/A   Clear
1:55 PM 111.2 °F - 28.9 °F 6% 29.59 in 6.2 mi NE 18.4 mph - N/A   Clear
2:55 PM 109.8 °F - 33.4 °F 7% 29.59 in 6.2 mi NNE 13.8 mph - N/A   Clear
3:55 PM 107.6 °F - 35.1 °F 8% 29.58 in 6.2 mi NNE 12.7 mph - N/A   Clear
4:55 PM 104.9 °F - 50.0 °F 16% 29.58 in 6.2 mi NE 8.1 mph - N/A   Clear
5:55 PM 101.1 °F 102.4 °F 61.2 °F 27% 29.59 in 6.2 mi Calm Calm - N/A   Clear
6:55 PM 97.5 °F 100.8 °F 66.0 °F 35% 29.60 in 6.2 mi Calm Calm - N/A   Clear
7:55 PM 92.8 °F 98.6 °F 69.6 °F 47% 29.64 in 6.2 mi North 10.4 mph - N/A   Clear
8:55 PM 91.8 °F 104.1 °F 76.3 °F 60% 29.65 in 6.2 mi North 12.7 mph - N/A   Clear
9:55 PM 89.8 °F 104.0 °F 78.1 °F 68% 29.64 in 6.2 mi North 10.4 mph - N/A   Clear
10:55 PM 86.4 °F 97.4 °F 76.8 °F 73% 29.64 in 6.2 mi NNW 4.6 mph - N/A   Clear
11:55 PM 83.8 °F 92.1 °F 75.4 °F 76% 29.63 in 6.2 mi NNW 3.5 mph - N/A   Clear